Showing default

YAMAL 401, 40345

Orbit data source: Space-Track

YAMAL 401, 40345 is a payload satellite owned by Gazprom KS (CIS) in GEO that was launched on Mon, 15 Dec 2014 UTC via a PROTON-M/BRIZ-M launch vehicle from the Tyuratam Missile And Space Complex (TTMTR). Payload-class satellites include a variety of spacecraft equipped with specific instruments for various scientific and technological missions. These include communications satellites like Starlink; space stations such as the ISS; scientific satellites like the Hubble; Earth observation satellites from companies like Planet Labs, Umbra, and HawkEye 360; GPS; miniature CubeSats for education and research; and military/defense satellites.

Not visible in the next 10 days
Identifier
40345, 2014-082A
Orbit
GEO
Country
Flag of CISCIS
Related business
Manufacturer
Resehetnev ISS
Mission
Operational Commercial Communications
Bus & Motor
EKSPRESS-2000, AOCS
Mass
2,976 kg wet, 2,500 kg dry
Launch date (UTC)
2014-12-15 (12 years ago)
Launch vehicle
PROTON-M/BRIZ-M
Launch site
Tyuratam Missile And Space Complex (TTMTR)
Object type
Payload
Rocket body
Debris
Shape & HBR
Box + 2 Pan, 17.5 m
Radar Cross Section
29.721 m², Large (>1 m²)

Expand to show TLE details & history
Last TLE update: 4 hours ago

TLE from 4 hours ago
0 YAMAL 401
1 40345U 14082A   26263.93669836 -.00000233  00000-0  00000+0 0  9998
2 40345   0.0159 207.9711 0000673 350.1185 228.9092  1.00274651 42878
Epoch: 2026-09-20T22:28Z
TLE epoch observation values (Epoch: 2026-09-20T22:28:50.738Z)
Latitude
-0.02578°
Longitude
89.9458°
Altitude
35,787.149 km
Speed
3.075 km/s
True Right ascension
04h 27m 55s
True Declination
0° 01' 33"
Sunlit
Object was in daylight at epoch
Visualization orbit readout
Latitude
Unknown
Longitude
Unknown
Altitude
Unknown
Speed
Unknown
Apparent Right ascension
Unknown
Apparent Declination
Unknown
Sunlit
N/A
Visualization observer readout
Local Sidereal Time
19:46:45
Azimuth
Unknown
Elevation
Unknown
Doppler factor
Unknown
Orbital elements
Apogee altitude
35,789.7 km
Perigee altitude
35,784.024 km
Semi-major axis
42,164.999 km
Eccentricity
0.00007
Inclination
0.0159°
RAAN
207.9711°
Arg. of periapsis
350.1185°
True anomaly
228.90339°
Mean anomaly
228.9092°
Eccentric anomaly
228.90629°
Mean motion
0.25068 °/min
Orbital period
1,436.11 mins
BSTAR
0
Loading maneuver chart data...
Computing Atmospheric mass density...
Loading historical data...
Loading historical data...
Loading historical data...
Loading historical data...
Loading historical data...
Loading historical data...
Loading historical data...
Other satellites on launch #82 in the year 2014 (2014-12-15 UTC)

Documentation

Showing up to 5 results
|